• In Germany
  • List of Countries
  • For 7 days
  • Water Temperature
  • Satellite Maps
  • Weather Map
  • Weather Widgets
  • user-avatar
    Login

    Hourly Weather Sidi Bu-l-Abbas

    Today, 17 August, Thursday

    Time Temperature Precipitation Wind Pressure Humidity
    00:00 +28°C° 0 mm 1 mps 723 mmHg 67%
    01:00 +28°C° 0 mm 1 mps 722 mmHg 69%
    02:00 +27°C° 0 mm 1 mps 722 mmHg 71%
    03:00 +27°C° 0 mm 1 mps 722 mmHg 73%
    04:00 +26°C° 0 mm 1 mps 722 mmHg 75%
    05:00 +26°C° 0 mm 1 mps 722 mmHg 76%
    06:00 +26°C° 0 mm 1 mps 722 mmHg 75%
    07:00 +28°C° 0 mm 1 mps 723 mmHg 67%
    08:00 +29°C° 0 mm 1 mps 723 mmHg 59%
    09:00 +30°C° 0 mm 2 mps 723 mmHg 51%
    10:00 +32°C° 0 mm 2 mps 723 mmHg 45%
    11:00 +34°C° 0 mm 3 mps 723 mmHg 40%
    12:00 +36°C° 0 mm 3 mps 723 mmHg 35%
    13:00 +36°C° 0 mm 4 mps 723 mmHg 34%
    14:00 +36°C° 0 mm 4 mps 723 mmHg 34%
    15:00 +37°C° 0 mm 5 mps 722 mmHg 34%
    16:00 +36°C° 0 mm 4 mps 722 mmHg 36%
    17:00 +35°C° 0 mm 4 mps 722 mmHg 39%
    18:00 +34°C° 0 mm 4 mps 722 mmHg 42%
    19:00 +33°C° 0 mm 4 mps 722 mmHg 45%
    20:00 +31°C° 0 mm 3 mps 722 mmHg 48%
    21:00 +31°C° 0 mm 2 mps 722 mmHg 52%
    22:00 +30°C° 0 mm 2 mps 722 mmHg 54%
    23:00 +29°C° 0 mm 1 mps 722 mmHg 56%

    Tomorrow, 18 August, Friday

    Time Temperature Precipitation Wind Pressure Humidity
    00:00 +29°C° 0 mm 1 mps 722 mmHg 58%
    01:00 +28°C° 0 mm 1 mps 722 mmHg 61%
    02:00 +28°C° 0 mm 1 mps 721 mmHg 64%
    03:00 +27°C° 0 mm 1 mps 721 mmHg 67%
    04:00 +27°C° 0 mm 1 mps 721 mmHg 67%
    05:00 +27°C° 0 mm 1 mps 721 mmHg 67%
    06:00 +27°C° 0 mm 1 mps 721 mmHg 67%
    07:00 +28°C° 0 mm 1 mps 721 mmHg 59%
    08:00 +30°C° 0 mm 1 mps 722 mmHg 51%
    09:00 +32°C° 0 mm 1 mps 722 mmHg 44%
    10:00 +33°C° 0 mm 1 mps 722 mmHg 39%
    11:00 +35°C° 0 mm 2 mps 722 mmHg 34%
    12:00 +37°C° 0 mm 2 mps 721 mmHg 29%
    13:00 +37°C° 0 mm 3 mps 721 mmHg 30%
    14:00 +37°C° 0 mm 4 mps 721 mmHg 30%
    15:00 +38°C° 0 mm 4 mps 721 mmHg 30%
    16:00 +37°C° 0 mm 4 mps 721 mmHg 33%
    17:00 +36°C° 0 mm 4 mps 720 mmHg 36%
    18:00 +35°C° 0 mm 4 mps 720 mmHg 39%
    19:00 +34°C° 0 mm 3 mps 721 mmHg 41%
    20:00 +32°C° 0 mm 2 mps 721 mmHg 43%
    21:00 +32°C° 0 mm 1 mps 721 mmHg 45%
    22:00 +31°C° 0 mm 1 mps 721 mmHg 47%
    23:00 +30°C° 0 mm 1 mps 721 mmHg 48%

    Day after tomorrow, 19 August, Saturday

    Time Temperature Precipitation Wind Pressure Humidity
    00:00 +28°C° 0 mm 0 mps 721 mmHg 50%
    01:00 +29°C° 0 mm 1 mps 720 mmHg 51%
    02:00 +29°C° 0 mm 1 mps 720 mmHg 53%
    03:00 +28°C° 0 mm 1 mps 720 mmHg 55%
    04:00 +28°C° 0 mm 1 mps 720 mmHg 56%
    05:00 +27°C° 0 mm 1 mps 720 mmHg 57%
    06:00 +27°C° 0 mm 1 mps 720 mmHg 59%
    07:00 +29°C° 0 mm 1 mps 721 mmHg 50%
    08:00 +31°C° 0 mm 1 mps 721 mmHg 41%
    09:00 +34°C° 0 mm 2 mps 722 mmHg 31%
    10:00 +36°C° 0 mm 2 mps 722 mmHg 28%
    11:00 +37°C° 0 mm 3 mps 721 mmHg 24%
    12:00 +39°C° 0 mm 3 mps 721 mmHg 21%
    13:00 +40°C° 0 mm 4 mps 721 mmHg 21%
    14:00 +40°C° 0 mm 4 mps 721 mmHg 22%
    15:00 +41°C° 0 mm 5 mps 721 mmHg 23%
    16:00 +39°C° 0 mm 5 mps 720 mmHg 27%
    17:00 +37°C° 0 mm 5 mps 720 mmHg 31%
    18:00 +36°C° 0 mm 5 mps 720 mmHg 34%
    19:00 +35°C° 0 mm 4 mps 720 mmHg 38%
    20:00 +34°C° 0 mm 4 mps 721 mmHg 41%
    21:00 +33°C° 0 mm 3 mps 721 mmHg 45%
    22:00 +31°C° 0 mm 2 mps 721 mmHg 47%
    23:00 +31°C° 0 mm 2 mps 721 mmHg 49%

    20 August, Sunday

    Time Temperature Precipitation Wind Pressure Humidity
    00:00 +30°C° 0 mm 2 mps 721 mmHg 51%
    01:00 +30°C° 0 mm 2 mps 721 mmHg 54%
    02:00 +29°C° 0 mm 2 mps 721 mmHg 57%
    03:00 +28°C° 0 mm 2 mps 721 mmHg 60%
    04:00 +28°C° 0 mm 2 mps 721 mmHg 62%
    05:00 +28°C° 0 mm 2 mps 721 mmHg 63%
    06:00 +27°C° 0 mm 2 mps 721 mmHg 65%
    07:00 +29°C° 0 mm 2 mps 721 mmHg 59%
    08:00 +30°C° 0 mm 2 mps 722 mmHg 53%
    09:00 +32°C° 0 mm 2 mps 722 mmHg 47%
    10:00 +34°C° 0 mm 3 mps 722 mmHg 42%
    11:00 +36°C° 0 mm 3 mps 722 mmHg 38%
    12:00 +37°C° 0 mm 3 mps 722 mmHg 33%
    13:00 +37°C° 0 mm 4 mps 722 mmHg 33%
    14:00 +38°C° 0 mm 4 mps 721 mmHg 33%
    15:00 +39°C° 0 mm 5 mps 721 mmHg 33%
    16:00 +37°C° 0 mm 5 mps 721 mmHg 36%
    17:00 +36°C° 0 mm 5 mps 721 mmHg 39%
    18:00 +35°C° 0 mm 4 mps 721 mmHg 42%
    19:00 +34°C° 0 mm 4 mps 721 mmHg 46%
    20:00 +33°C° 0 mm 3 mps 721 mmHg 49%
    21:00 +31°C° 0 mm 3 mps 722 mmHg 53%
    22:00 +30°C° 0 mm 2 mps 722 mmHg 56%
    23:00 +30°C° 0 mm 2 mps 722 mmHg 58%

    21 August, Monday

    Time Temperature Precipitation Wind Pressure Humidity
    00:00 +29°C° 0 mm 2 mps 722 mmHg 61%
    01:00 +28°C° 0 mm 2 mps 722 mmHg 64%
    02:00 +28°C° 0 mm 2 mps 721 mmHg 66%
    03:00 +27°C° 0 mm 2 mps 721 mmHg 69%
    04:00 +27°C° 0 mm 1 mps 721 mmHg 70%
    05:00 +27°C° 0 mm 1 mps 722 mmHg 71%
    06:00 +27°C° 0 mm 1 mps 722 mmHg 73%
    07:00 +28°C° 0 mm 1 mps 722 mmHg 66%
    08:00 +29°C° 0 mm 2 mps 722 mmHg 59%
    09:00 +30°C° 0 mm 2 mps 722 mmHg 53%
    10:00 +32°C° 0 mm 2 mps 722 mmHg 48%
    11:00 +34°C° 0 mm 3 mps 722 mmHg 43%
    12:00 +35°C° 0 mm 3 mps 722 mmHg 38%
    13:00 +36°C° 0 mm 4 mps 722 mmHg 37%
    14:00 +36°C° 0 mm 4 mps 722 mmHg 36%
    15:00 +37°C° 0 mm 4 mps 721 mmHg 35%
    16:00 +36°C° 0 mm 4 mps 721 mmHg 38%
    17:00 +35°C° 0 mm 4 mps 721 mmHg 40%
    18:00 +34°C° 0 mm 4 mps 721 mmHg 42%
    19:00 +33°C° 0 mm 3 mps 721 mmHg 45%
    20:00 +31°C° 0 mm 2 mps 722 mmHg 48%
    21:00 +30°C° 0 mm 2 mps 722 mmHg 51%
    22:00 +30°C° 0 mm 2 mps 722 mmHg 53%
    23:00 +29°C° 0 mm 1 mps 722 mmHg 55%

    22 August, Tuesday

    Time Temperature Precipitation Wind Pressure Humidity
    00:00 +29°C° 0 mm 1 mps 721 mmHg 58%
    01:00 +28°C° 0 mm 1 mps 721 mmHg 60%
    02:00 +27°C° 0 mm 1 mps 721 mmHg 62%
    03:00 +27°C° 0 mm 1 mps 721 mmHg 64%
    04:00 +27°C° 0 mm 1 mps 721 mmHg 65%
    05:00 +25°C° 0 mm 0 mps 721 mmHg 65%
    06:00 +24°C° 0 mm 0 mps 721 mmHg 66%
    07:00 +26°C° 0 mm 0 mps 721 mmHg 58%
    08:00 +30°C° 0 mm 1 mps 722 mmHg 51%
    09:00 +31°C° 0 mm 1 mps 722 mmHg 43%
    10:00 +34°C° 0 mm 2 mps 722 mmHg 38%
    11:00 +35°C° 0 mm 2 mps 722 mmHg 34%
    12:00 +37°C° 0 mm 3 mps 721 mmHg 29%
    13:00 +37°C° 0 mm 3 mps 721 mmHg 29%
    14:00 +37°C° 0 mm 4 mps 721 mmHg 28%
    15:00 +38°C° 0 mm 4 mps 720 mmHg 28%
    16:00 +37°C° 0 mm 4 mps 720 mmHg 29%
    17:00 +36°C° 0 mm 3 mps 720 mmHg 31%
    18:00 +35°C° 0 mm 3 mps 720 mmHg 33%
    19:00 +34°C° 0 mm 2 mps 720 mmHg 35%
    20:00 +32°C° 0 mm 2 mps 720 mmHg 38%
    21:00 +31°C° 0 mm 1 mps 720 mmHg 41%
    22:00 +31°C° 0 mm 1 mps 720 mmHg 43%
    23:00 +30°C° 0 mm 1 mps 720 mmHg 45%
    Show more